Location: Zagreb
(45.8000°N, 16.0000°E)
Time: 20:58:26
(UTC+01:00)

CUTE-I - Pass Details

Date: 07 November 2020
Orbit: 811 x 824 km, 98.7° (Epoch: 01 December)

Event Time Altitude Azimuth Distance (km) Brightness Sun altitude
Rises 18:46:48 0° 212° (SSW) 3,321 ? -23.4°
Reaches altitude 10° 18:50:04 10° 233° (SW) 2,396 ? -24.0°
Maximum altitude 18:53:16 16° 271° (W) 2,007 ? -24.5°
Drops below altitude 10° 18:56:29 10° 308° (NW) 2,411 ? -25.1°
Sets 18:59:49 0° 330° (NNW) 3,351 ? -25.7°
